Location: Emblem
(62.4273°N, 6.4710°E)
Time: 02:15:34
(UTC+01:00)

A-11 Canister half - Visible Passes

Search period start: 29 November 2023 00:00
Search period end: 09 December 2023 00:00
Orbit: 1514 x 1685 km, 47.2° (Epoch: 28 November)

Date Brightness Start Highest point End Pass type
(mag) Time Alt. Az. Time Alt. Az. Time Alt. Az.
29 Nov 10.2 03:22:44 27° SSE 03:22:44 27° SSE 03:30:04 10° ESE visible
29 Nov 10.0 05:20:56 25° SW 05:25:02 34° S 05:33:41 10° ESE visible
29 Nov 10.4 07:20:03 10° WSW 07:27:54 27° SSW 07:35:51 10° SSE visible
30 Nov 10.3 03:01:05 25° SE 03:01:05 25° SE 03:07:05 10° ESE visible
30 Nov 9.9 04:59:17 29° SSW 05:02:09 34° S 05:10:47 10° ESE visible
30 Nov 10.3 06:57:29 11° WSW 07:05:02 28° SSW 07:13:03 10° SSE visible
01 Dec 10.5 02:39:26 22° SE 02:39:26 22° SE 02:44:07 10° ESE visible
01 Dec 9.9 04:37:38 32° SSW 04:39:15 34° S 04:47:53 10° ESE visible
01 Dec 10.2 06:35:50 15° WSW 06:42:10 28° SSW 06:50:16 10° SSE visible
02 Dec 10.7 02:17:47 19° ESE 02:17:47 19° ESE 02:21:08 10° ESE visible
02 Dec 9.9 04:15:58 33° S 04:16:22 33° S 04:24:58 10° ESE visible
02 Dec 10.2 06:14:10 19° WSW 06:19:18 29° SSW 06:27:27 10° SSE visible
02 Dec 10.7 08:16:18 10° WSW 08:21:35 16° SW 08:26:55 10° SSW visible
03 Dec 10.9 01:56:07 15° ESE 01:56:07 15° ESE 01:58:09 10° ESE visible
03 Dec 9.9 03:54:19 33° SSE 03:54:19 33° SSE 04:02:03 10° ESE visible
03 Dec 10.1 05:52:31 23° SW 05:56:26 29° SSW 06:04:38 10° SE visible
03 Dec 10.7 07:53:13 10° WSW 07:58:47 17° SW 08:04:22 10° S visible
04 Dec 11.1 01:34:28 12° ESE 01:34:28 12° ESE 01:35:10 10° ESE visible
04 Dec 10.1 03:32:39 30° SSE 03:32:39 30° SSE 03:39:09 10° ESE visible
04 Dec 10.0 05:30:51 26° SW 05:33:33 30° SSW 05:41:49 10° SE visible
04 Dec 10.6 07:30:08 10° WSW 07:35:57 17° SW 07:41:49 10° S visible
05 Dec 10.3 03:11:01 27° SE 03:11:01 27° SE 03:16:12 10° ESE visible
05 Dec 9.9 05:09:12 29° SSW 05:10:40 30° SSW 05:18:59 10° SE visible
05 Dec 10.6 07:07:25 11° WSW 07:13:07 18° SW 07:19:13 10° S visible
06 Dec 10.5 02:49:23 23° SE 02:49:23 23° SE 02:53:18 10° ESE visible
06 Dec 9.9 04:47:35 31° SSW 04:47:48 31° SSW 04:56:08 10° SE visible
06 Dec 10.5 06:45:47 14° WSW 06:50:17 19° SW 06:56:35 10° S visible
07 Dec 10.7 02:27:46 18° ESE 02:27:46 18° ESE 02:30:21 10° ESE visible
07 Dec 10.0 04:25:58 31° S 04:25:58 31° S 04:33:18 10° SE visible
07 Dec 10.4 06:24:10 17° WSW 06:27:27 20° SW 06:33:57 10° S visible
08 Dec 10.9 02:06:11 14° ESE 02:06:11 14° ESE 02:07:26 10° ESE visible
08 Dec 10.1 04:04:23 29° S 04:04:23 29° S 04:10:25 10° SE visible
08 Dec 10.3 06:02:36 19° SW 06:04:37 20° SW 06:11:17 10° S visible
